Location: Cortada de Papelón
(10.0378°N, 66.9528°W)
Time: 10:52:46
(UTC+00:00)

Meteor 1-11 Rocket - Pass Details

Date: 13 June 2024
Orbit: 831 x 914 km, 81.2° (Epoch: 19 July)

Event Time Altitude Azimuth Distance (km) Brightness Sun altitude
Rises 23:26:50 0° 1° (N) 3,526 7.3 -9.2°
Reaches altitude 10° 23:29:20 10° 5° (N) 2,591 6.5 -9.8°
Maximum altitude 23:35:11 61° 85° (E) 1,028 3.9 -11.1°
Drops below altitude 10° 23:41:01 10° 164° (SSE) 2,592 5.8 -12.4°
Enters shadow 23:43:02 - 167° (SSE) 3,350 6.4 -12.8°
